Weather History for Dallas Love, TX

Change the Weather History Date:

Tuesday, May 1, 2012

  Actual Average Record
Temperature  
Mean Temperature 79 °F -  
Max Temperature 87 °F 79 °F 93 °F (2002)
Min Temperature 71 °F 60 °F 46 °F (2011)
Cooling Degree Days 14    
Growing Degree Days 29 (Base 50)    
Moisture  
Dew Point 65 °F    
Average Humidity 68    
Maximum Humidity 84    
Minimum Humidity 46    
Precipitation  
Precipitation 0.00 in - - ()
Sea Level Pressure  
Sea Level Pressure 29.87 in    
Wind  
Wind Speed 17 mph (South)    
Max Wind Speed 24 mph    
Max Gust Speed 33 mph    
Visibility 10 miles    
Events      
Averages and records for this station are not official NWS values.
T = Trace of Precipitation, MM = Missing Value Source: NWS Daily Summary

Daily Weather History Graph

Daily Weather History Graph

Search for Another Location

Airport:

Trip Planner

Search our weather history database for the weather conditions in past years. The results will help you decide how hot, cold, wet, or windy it might be!

Date:

Astronomy

May. 01, 2012 Rise Set
Actual Time 6:39 AM CDT 8:09 PM CDT
Civil Twilight 6:13 AM CDT 8:36 PM CDT
Nautical Twilight 5:41 AM CDT 9:07 PM CDT
Astronomical Twilight 5:08 AM CDT 9:40 PM CDT
Moon 3:29 PM CDT (5/1) 3:21 AM CDT (5/1)
Length of Visible Light 14h 22m
Length of Day
13h 30m
Waxing Gibbous, 74% of the Moon is Illuminated
May 1
Waxing Gibbous
May 5
Full
May 12
Last Quarter
May 20
New
May 28
First Quarter

Hourly Weather History & Observations

Time (CDT) Temp. Heat Index Dew Point Humidity Pressure Visibility Wind Dir Wind Speed Gust Speed Precip Events Conditions
12:53 AM 75.0 °F - 66.9 °F 76% 29.89 in 10.0 mi SSE 20.7 mph 26.5 mph N/A   Overcast
1:53 AM 73.0 °F - 66.9 °F 81% 29.88 in 10.0 mi South 16.1 mph 25.3 mph N/A   Overcast
2:53 AM 73.0 °F - 66.0 °F 79% 29.88 in 10.0 mi South 18.4 mph 25.3 mph N/A   Overcast
3:38 AM 71.6 °F - 66.2 °F 83% 29.90 in 10.0 mi South 12.7 mph 21.9 mph N/A   Overcast
3:53 AM 72.0 °F - 66.9 °F 84% 29.88 in 10.0 mi South 13.8 mph - N/A   Overcast
4:18 AM 71.6 °F - 66.2 °F 83% 29.90 in 10.0 mi South 17.3 mph 24.2 mph N/A   Overcast
4:53 AM 71.1 °F - 66.0 °F 84% 29.88 in 10.0 mi South 15.0 mph 23.0 mph N/A   Overcast
5:53 AM 71.1 °F - 66.0 °F 84% 29.88 in 10.0 mi SSE 11.5 mph - N/A   Mostly Cloudy
6:10 AM 71.6 °F - 66.2 °F 83% 29.90 in 10.0 mi SSE 15.0 mph 20.7 mph N/A   Mostly Cloudy
6:30 AM 71.6 °F - 66.2 °F 83% 29.90 in 10.0 mi SSE 13.8 mph - N/A   Overcast
6:53 AM 71.1 °F - 66.0 °F 84% 29.88 in 10.0 mi South 15.0 mph 26.5 mph N/A   Overcast
7:16 AM 71.6 °F - 66.2 °F 83% 29.92 in 10.0 mi South 15.0 mph - N/A   Overcast
7:38 AM 71.6 °F - 66.2 °F 83% 29.91 in 10.0 mi South 16.1 mph - N/A   Mostly Cloudy
7:53 AM 71.6 °F - 66.2 °F 83% 29.92 in 10.0 mi South 16.1 mph - N/A   Mostly Cloudy
8:19 AM 73.4 °F - 66.2 °F 78% 29.92 in 10.0 mi South 18.4 mph - N/A   Mostly Cloudy
8:53 AM 73.9 °F - 66.0 °F 76% 29.91 in 10.0 mi South 17.3 mph 29.9 mph N/A   Mostly Cloudy
9:53 AM 77.0 °F - 66.0 °F 69% 29.92 in 10.0 mi South 17.3 mph 23.0 mph N/A   Mostly Cloudy
10:53 AM 78.1 °F - 64.9 °F 64% 29.91 in 10.0 mi SSW 16.1 mph 31.1 mph N/A   Mostly Cloudy
11:00 AM 78.8 °F - 64.4 °F 61% 29.93 in 10.0 mi SSW 13.8 mph 24.2 mph N/A   Mostly Cloudy
11:13 AM 78.8 °F - 64.4 °F 61% 29.93 in 10.0 mi SSW 17.3 mph 26.5 mph N/A   Mostly Cloudy
11:45 AM 80.6 °F 82.3 °F 64.4 °F 58% 29.92 in 10.0 mi SSW 12.7 mph 24.2 mph N/A   Mostly Cloudy
11:53 AM 82.0 °F 83.8 °F 64.9 °F 56% 29.90 in 10.0 mi South 20.7 mph 27.6 mph N/A   Mostly Cloudy
12:53 PM 84.9 °F 86.6 °F 64.9 °F 51% 29.87 in 10.0 mi South 20.7 mph 31.1 mph N/A   Mostly Cloudy
1:53 PM 86.0 °F 87.6 °F 64.9 °F 49% 29.85 in 10.0 mi South 23.0 mph 31.1 mph N/A   Mostly Cloudy
2:53 PM 87.1 °F 88.3 °F 64.0 °F 46% 29.83 in 10.0 mi South 24.2 mph 33.4 mph N/A   Mostly Cloudy
3:53 PM 87.1 °F 88.3 °F 64.0 °F 46% 29.81 in 10.0 mi South 24.2 mph 31.1 mph N/A   Mostly Cloudy
4:53 PM 86.0 °F 87.6 °F 64.9 °F 49% 29.79 in 10.0 mi South 23.0 mph 27.6 mph N/A   Mostly Cloudy
5:53 PM 84.2 °F 85.6 °F 64.4 °F 51% 29.80 in 10.0 mi South 18.4 mph 27.6 mph N/A   Scattered Clouds
6:53 PM 84.9 °F 86.1 °F 64.0 °F 49% 29.78 in 10.0 mi South 16.1 mph - N/A   Scattered Clouds
7:53 PM 82.0 °F 83.0 °F 62.1 °F 51% 29.78 in 10.0 mi South 19.6 mph 27.6 mph N/A   Scattered Clouds
8:53 PM 81.0 °F 81.9 °F 62.1 °F 52% 29.80 in 10.0 mi South 18.4 mph 24.2 mph N/A   Clear
9:53 PM 79.0 °F - 62.1 °F 56% 29.82 in 10.0 mi South 19.6 mph 26.5 mph N/A   Clear
10:53 PM 77.0 °F - 62.1 °F 60% 29.84 in 10.0 mi South 17.3 mph 24.2 mph N/A   Clear
11:53 PM 75.9 °F - 63.0 °F 64% 29.83 in 10.0 mi South 18.4 mph - N/A   Clear